Regional Weather Roundup
Issued by NWS

Home | Current Version | Previous Version | Graphics & Text | Print | Product List | Glossary On
Versions: 1 2 3 4 5 6 7 8 9 10 11 12 13 14 15 16 17 18 19 20 21 22 23 24 25 26 27 28 29 30 31 32 33 34 35 36 37 38 39 40 41 42 43 44 45 46 47 48 49 50
000
ASUS43 KOAX 281702
RWRNE

WEATHER ROUNDUP FOR NEBRASKA
NATIONAL WEATHER SERVICE OMAHA NE
1200 PM CDT SAT MAR 28 2015

NOTES: SATELLITE DATA IS BEING USED TO AUGMENT CLOUD COVER ABOVE
       12000 FEET.
       "FAIR" INDICATES FEW OR NO CLOUDS BELOW 12,000 FEET WITH NO
       SIGNIFICANT WEATHER AND/OR OBSTRUCTIONS TO VISIBILITY.

  * THESE STATIONS DO NOT REPORT WEATHER SUCH AS RAIN...SNOW OR FOG.

NEZ001>004-019>022-054>056-281800-
NEBRASKA PANHANDLE

CITY           SKY/WX    TMP DP  RH WIND       PRES   REMARKS
SCOTTSBLUFF    SUNNY     67  34  29 W9G18     29.96F
ALLIANCE       SUNNY     70  30  22 SW13G18   29.93F
CHADRON        SUNNY     69  33  26 SW8       29.89F
KIMBALL        SUNNY     71  28  20 NW15G25   29.99F
SIDNEY         SUNNY     70  32  24 NW6       29.99F
$$

NEZ057>060-069>072-079>082-281800-
SOUTHWEST NEBRASKA

CITY           SKY/WX    TMP DP  RH WIND       PRES   REMARKS
NORTH PLATTE   SUNNY     64  38  38 S9        29.98F
IMPERIAL         N/A     65  35  33 SE8       29.99F
MCCOOK         SUNNY     64  36  35 SE10G18   30.01F
$$

NEZ005>010-023>029-035>040-094-281800-
NORTH CENTRAL NEBRASKA

CITY           SKY/WX    TMP DP  RH WIND       PRES   REMARKS
VALENTINE      SUNNY     62  34  35 S14       29.94F
AINSWORTH      SUNNY     58  34  40 SE12G17   29.97F
BROKEN BOW     SUNNY     53  33  46 SE9G18    30.02S
ORD            SUNNY     48  28  46 SE12      30.03F
$$

NEZ041-046>049-061>064-073>077-083>087-281800-
SOUTH CENTRAL NEBRASKA

CITY           SKY/WX    TMP DP  RH WIND       PRES   REMARKS
GRAND ISLAND   SUNNY     46  29  51 SE9       30.07F
HASTINGS       SUNNY     49  30  48 SE10      30.05F
HEBRON         SUNNY     49  29  45 SE8       30.09F
KEARNEY *      SUNNY     50  28  43 SE9       30.05S
$$

NEZ011>018-030>034-042>045-281800-
NORTHEAST NEBRASKA

CITY           SKY/WX    TMP DP  RH WIND       PRES   REMARKS
NORFOLK        SUNNY     43  31  62 SE16      30.09F
ALBION         SUNNY     44  28  52 SE12      30.08S
BLAIR          SUNNY     46  27  46 SE14      30.14S
COLUMBUS *     SUNNY     45  28  53 S12       30.13F
TEKAMAH        SUNNY     48  26  42 SE17G25   30.16F
$$

NEZ050>053-065>068-078-088>093-281800-
SOUTHEAST NEBRASKA

CITY           SKY/WX    TMP DP  RH WIND       PRES   REMARKS
LINCOLN        SUNNY     46  29  51 SE9G20    30.15S
OMAHA EPPLEY   SUNNY     45  27  49 SE17      30.17S
FALLS CITY     SUNNY     48  29  47 SE16G24   30.16S
$$

NEZ044-045-051>053-067-281800-
OMAHA AREA

CITY           SKY/WX    TMP DP  RH WIND       PRES   REMARKS
OMAHA EPPLEY   SUNNY     45  27  49 SE17      30.17S
BLAIR          SUNNY     46  27  46 SE14      30.14S
OFFUTT AFB     SUNNY     46  27  47 SE13G22   30.16S
$$


USA.gov is the U.S. government's official web portal to all federal, state and local government web resources and services.